Mackinac Island, MI

7:56 PM EST on December 12, 2017 (GMT -0500)
Mackinac Island

Weather History for KMCD - February, 2014

Change the Weather History Date:

Saturday, February 15, 2014

  Actual Average Record
Temperature  
Mean Temperature 3 °F -  
Max Temperature 8 °F 25 °F 48 °F (1981)
Min Temperature -2 °F 13 °F -20 °F (2015)
Degree Days  
Heating Degree Days 62    
Moisture  
Dew Point 0 °F    
Average Humidity 82    
Maximum Humidity 90    
Minimum Humidity 71    
Precipitation  
Precipitation 0.00 in - - ()
Sea Level Pressure  
Sea Level Pressure 29.95 in    
Wind  
Wind Speed 6 mph (WNW)    
Max Wind Speed 12 mph    
Max Gust Speed -    
Visibility 8 miles    
Events Snow    
Averages and records for this station are not official NWS values.
T = Trace of Precipitation, MM = Missing Value Source: NWS Daily Summary

Daily Weather History Graph

Daily Weather History Graph

Search for Another Location

Airport or City:

Trip Planner

Search our weather history database for the weather conditions in past years. The results will help you decide how hot, cold, wet, or windy it might be!

Date:

Astronomy

Feb. 15, 2014 Rise Set
Actual Time 7:40 AM EST 6:05 PM EST
Civil Twilight 7:10 AM EST 6:35 PM EST
Nautical Twilight 6:35 AM EST 7:10 PM EST
Astronomical Twilight 6:00 AM EST 7:45 PM EST
Moon 7:10 PM EST (2/15) 7:34 AM EST (2/15)
Length of Visible Light 11h 25m
Length of Day
10h 24m
Full, 100% of the Moon is Illuminated
Feb 15
Full
Feb 22
Last Quarter
Mar 1
New
Mar 8
First Quarter
Mar 16
Full

Hourly Weather History & Observations

Time (EST) Temp. Windchill Dew Point Humidity Pressure Visibility Wind Dir Wind Speed Gust Speed Precip Events Conditions
12:16 AM 4.8 °F -8.3 °F 1.9 °F 88% 29.80 in 2.5 mi West 8.1 mph - N/A Snow Light Snow
12:36 AM 5.0 °F -6.9 °F 2.1 °F 88% 29.80 in 2.0 mi West 6.9 mph - N/A Snow Light Snow
12:56 AM 5.0 °F -5.6 °F 2.3 °F 89% 29.81 in 1.8 mi West 5.8 mph - N/A Snow Light Snow
1:16 AM 4.6 °F -4.5 °F 2.1 °F 89% 29.81 in 2.5 mi NW 4.6 mph - N/A Snow Light Snow
1:36 AM 5.0 °F -6.9 °F 2.3 °F 89% 29.81 in 4.0 mi NNW 6.9 mph - N/A Snow Light Snow
1:56 AM 5.2 °F -5.4 °F 2.8 °F 90% 29.83 in 4.0 mi NNW 5.8 mph - N/A Snow Light Snow
2:16 AM 5.4 °F -5.2 °F 2.8 °F 89% 29.83 in 3.0 mi NNW 5.8 mph - N/A Snow Light Snow
2:36 AM 5.9 °F -4.5 °F 3.6 °F 90% 29.84 in 10.0 mi North 5.8 mph - N/A   Overcast
2:56 AM 5.4 °F -5.2 °F 2.8 °F 89% 29.84 in 5.0 mi NNW 5.8 mph - N/A Snow Light Snow
3:16 AM 4.1 °F -5.1 °F 1.6 °F 89% 29.84 in 7.0 mi NNW 4.6 mph - N/A Snow Light Snow
3:36 AM 3.7 °F -8.4 °F 1.0 °F 89% 29.86 in 10.0 mi NW 6.9 mph - N/A   Clear
3:56 AM 3.0 °F -8.0 °F 0.5 °F 89% 29.87 in 10.0 mi NW 5.8 mph - N/A   Clear
4:16 AM 2.1 °F -11.6 °F -0.8 °F 88% 29.88 in 10.0 mi NNW 8.1 mph - N/A   Clear
4:36 AM 1.8 °F -12.0 °F -0.9 °F 88% 29.89 in 10.0 mi NW 8.1 mph - N/A   Clear
4:56 AM 0.7 °F -12.1 °F -2.2 °F 88% 29.90 in 10.0 mi NW 6.9 mph - N/A   Clear
5:16 AM 0.5 °F -11.0 °F -2.4 °F 88% 29.90 in 10.0 mi NW 5.8 mph - N/A   Clear
5:36 AM -0.0 °F -13.0 °F -2.9 °F 88% 29.92 in 10.0 mi NW 6.9 mph - N/A   Clear
5:56 AM -1.1 °F -14.3 °F -4.0 °F 88% 29.92 in 10.0 mi NW 6.9 mph - N/A   Clear
6:16 AM -1.8 °F -15.2 °F -4.7 °F 88% 29.92 in 10.0 mi NW 6.9 mph - N/A   Clear
6:37 AM -1.7 °F -13.5 °F -4.7 °F 87% 29.93 in 10.0 mi NW 5.8 mph - N/A   Clear
6:56 AM -1.7 °F -13.5 °F -4.5 °F 88% 29.93 in 10.0 mi NW 5.8 mph - N/A   Clear
7:16 AM -2.4 °F -14.4 °F -5.6 °F 86% 29.93 in 10.0 mi NW 5.8 mph - N/A   Clear
7:37 AM -2.6 °F -14.6 °F -5.4 °F 87% 29.94 in 7.0 mi NW 5.8 mph - N/A   Clear
7:56 AM -2.6 °F -14.6 °F -5.8 °F 86% 29.95 in 10.0 mi NW 5.8 mph - N/A   Clear
8:16 AM -2.4 °F -14.4 °F -5.6 °F 86% 29.96 in 10.0 mi NW 5.8 mph - N/A   Clear
8:37 AM -1.5 °F -11.6 °F -4.7 °F 86% 29.96 in 10.0 mi NW 4.6 mph - N/A   Clear
8:56 AM -0.8 °F -8.7 °F -4.0 °F 86% 29.97 in 10.0 mi NW 3.5 mph - N/A   Clear
9:16 AM -0.0 °F -9.9 °F -3.6 °F 85% 29.97 in 10.0 mi NW 4.6 mph - N/A   Clear
9:37 AM 0.3 °F -7.5 °F -3.3 °F 85% 29.97 in 10.0 mi NW 3.5 mph - N/A   Clear
9:56 AM 1.2 °F - -2.7 °F 83% 29.97 in 10.0 mi Calm Calm - N/A   Clear
10:16 AM 3.2 °F - -1.8 °F 80% 29.97 in 10.0 mi Calm Calm - N/A   Clear
10:36 AM 3.4 °F - -2.2 °F 78% 29.98 in 10.0 mi Calm Calm - N/A   Clear
10:56 AM 4.1 °F - -3.1 °F 72% 29.98 in 10.0 mi Calm Calm - N/A   Clear
11:17 AM 4.6 °F -2.5 °F -2.9 °F 71% 29.98 in 10.0 mi WNW 3.5 mph - N/A   Clear
11:36 AM 3.2 °F - -3.8 °F 73% 29.99 in 10.0 mi Calm Calm - N/A   Clear
11:56 AM 3.7 °F -7.1 °F -2.9 °F 74% 30.00 in 10.0 mi SSW 5.8 mph - N/A   Clear
12:17 PM 4.5 °F - -2.2 °F 74% 29.99 in 10.0 mi Calm Calm - N/A   Clear
12:36 PM 5.2 °F -3.8 °F -1.8 °F 73% 29.99 in 10.0 mi SW 4.6 mph - N/A   Clear
12:56 PM 5.5 °F -6.3 °F -1.8 °F 72% 29.98 in 10.0 mi WSW 6.9 mph - N/A   Clear
1:17 PM 5.7 °F -9.1 °F -1.7 °F 72% 29.99 in 10.0 mi WSW 10.4 mph - N/A   Clear
1:36 PM 6.4 °F -9.0 °F -1.3 °F 71% 29.98 in 10.0 mi WSW 11.5 mph - N/A   Clear
1:56 PM 6.6 °F -8.0 °F -1.1 °F 71% 29.97 in 1.2 mi WSW 10.4 mph - N/A Snow Light Snow
2:17 PM 7.2 °F -6.4 °F -0.4 °F 71% 29.97 in 0.5 mi WSW 9.2 mph - N/A Snow Light Snow
2:36 PM 7.2 °F -7.3 °F 0.3 °F 74% 29.97 in 0.5 mi WSW 10.4 mph - N/A Snow Light Snow
2:57 PM 7.5 °F -2.6 °F 0.5 °F 73% 29.97 in 1.2 mi WSW 5.8 mph - N/A Snow Light Snow
3:16 PM 7.7 °F -4.8 °F 1.0 °F 74% 29.97 in 7.0 mi West 8.1 mph - N/A   Clear
3:36 PM 7.7 °F -4.8 °F 0.5 °F 72% 29.97 in 10.0 mi WSW 8.1 mph - N/A   Scattered Clouds
3:57 PM 7.3 °F -2.8 °F 0.5 °F 74% 29.97 in 10.0 mi SW 5.8 mph - N/A   Mostly Cloudy
4:16 PM 7.5 °F -3.9 °F 0.5 °F 73% 29.98 in 10.0 mi SW 6.9 mph - N/A   Overcast
4:36 PM 7.5 °F -2.6 °F 1.8 °F 77% 29.99 in 10.0 mi WSW 5.8 mph - N/A   Overcast
4:57 PM 7.7 °F -5.8 °F 2.7 °F 80% 30.00 in 10.0 mi WSW 9.2 mph - N/A   Overcast
5:16 PM 7.7 °F -4.8 °F 2.3 °F 79% 30.00 in 10.0 mi West 8.1 mph - N/A   Overcast
5:37 PM 7.7 °F -4.8 °F 2.3 °F 79% 30.00 in 10.0 mi WSW 8.1 mph - N/A   Overcast
5:57 PM 7.7 °F -3.7 °F 2.8 °F 81% 30.00 in 10.0 mi WSW 6.9 mph - N/A   Overcast
6:16 PM 8.1 °F -0.5 °F 3.0 °F 80% 30.00 in 10.0 mi WSW 4.6 mph - N/A   Overcast
6:37 PM 8.2 °F -3.0 °F 3.2 °F 80% 30.01 in 10.0 mi West 6.9 mph - N/A   Overcast
6:56 PM 8.2 °F -1.8 °F 3.2 °F 80% 30.01 in 10.0 mi West 5.8 mph - N/A   Overcast
7:16 PM 8.2 °F 1.6 °F 3.2 °F 80% 30.02 in 10.0 mi West 3.5 mph - N/A   Overcast
7:37 PM 8.2 °F 1.6 °F 3.2 °F 80% 30.01 in 10.0 mi West 3.5 mph - N/A   Overcast
7:56 PM 8.2 °F - 3.6 °F 81% 30.02 in 10.0 mi Calm Calm - N/A   Overcast
8:16 PM 8.2 °F - 3.7 °F 82% 30.02 in 10.0 mi Calm Calm - N/A   Overcast
8:37 PM 8.4 °F - 3.9 °F 82% 30.02 in 10.0 mi Calm Calm - N/A   Overcast
8:56 PM 8.4 °F - 4.3 °F 83% 30.02 in 5.0 mi Calm Calm - N/A Snow Light Snow
9:17 PM 8.2 °F - 4.6 °F 85% 30.02 in 5.0 mi Calm Calm - N/A Snow Light Snow
9:37 PM 8.4 °F - 5.0 °F 86% 30.02 in 5.0 mi Calm Calm - N/A Snow Light Snow
9:56 PM 8.4 °F - 5.4 °F 87% 30.02 in 4.0 mi Calm Calm - N/A Snow Light Snow
10:17 PM 8.6 °F - 5.5 °F 87% 30.01 in 5.0 mi Calm Calm - N/A Snow Light Snow
10:37 PM 8.6 °F - 5.9 °F 89% 30.01 in 4.0 mi Calm Calm - N/A Snow Light Snow
10:56 PM 8.8 °F - 5.9 °F 88% 30.00 in 3.0 mi Calm Calm - N/A Snow Light Snow
11:16 PM 8.6 °F - 6.1 °F 89% 30.00 in 2.5 mi Calm Calm - N/A Snow Light Snow
11:36 PM 8.6 °F - 6.3 °F 90% 29.99 in 2.5 mi Calm Calm - N/A Snow Light Snow
11:56 PM 8.6 °F - 6.3 °F 90% 29.99 in 1.8 mi Calm Calm - N/A Snow Light Snow